Showing default

QIANFAN-45, 62246

Orbit data source: Space-Track

QIANFAN-45, 62246 is a Chinese payload satellite in LEO that was launched on Thu, 05 Dec 2024 UTC via a CHANG ZHENG 6A launch vehicle from the Taiyaun Space Center, China (TSC). Payload-class satellites include a variety of spacecraft equipped with specific instruments for various scientific and technological missions. These include communications satellites like Starlink; space stations such as the ISS; scientific satellites like the Hubble; Earth observation satellites from companies like Planet Labs, Umbra, and HawkEye 360; GPS; miniature CubeSats for education and research; and military/defense satellites.

Loading next visibility...
Identifier
62246, 2024-232K
Orbit
LEO
Country
Flag of CNCN / PRC
Related business
Manufacturer
SECM
Mission
Operational Commercial Communications
Bus & Motor
QIANFAN, Unknown motor
Mass
267 kg wet, ~267 kg dry
Launch date (UTC)
2024-12-05 (1 year ago)
Launch vehicle
CHANG ZHENG 6A
Launch site
Taiyaun Space Center, China (TSC)
Object type
Payload
Rocket body
Debris
Shape & HBR
Box + 1 Pan, 5.0 m
Radar Cross Section
13.200 m², Large (>1 m²)

Expand to show TLE details & history
Last TLE update: 10 hours ago

TLE from 10 hours ago
0 QIANFAN-45
1 62246U 24232K   26034.96492429  .00000055  00000-0  66194-4 0  9993
2 62246  89.0014  35.8446 0015764  45.0457 315.1970 13.50994916106440
Epoch: 2026-02-03T23:09Z
TLE epoch observation values (Epoch: 2026-02-03T23:09:29.458Z)
Latitude
0.00002°
Longitude
-85.66644°
Altitude
1,063.232 km
Speed
7.324 km/s
True Right ascension
02h 23m 22s
True Declination
0° 00' 00"
Sunlit
Object was in daylight at epoch
Visualization orbit readout
Latitude
Unknown
Longitude
Unknown
Altitude
Unknown
Speed
Unknown
Apparent Right ascension
Unknown
Apparent Declination
Unknown
Sunlit
N/A
Visualization observer readout
Local Sidereal Time
10:42:37
Azimuth
Unknown
Elevation
Unknown
Doppler factor
Unknown
Orbital elements
Apogee altitude
1,077.386 km
Perigee altitude
1,053.917 km
Semi-major axis
7,443.788 km
Eccentricity
0.00158
Inclination
89.0014°
RAAN
35.8446°
Arg. of periapsis
45.0457°
True anomaly
315.06953°
Mean anomaly
315.197°
Eccentric anomaly
315.13328°
Mean motion
3.3795 °/min
Orbital period
106.52 mins
BSTAR
0.000066194
Loading maneuver chart data...
Computing Atmospheric mass density...
Loading historical data...
Loading historical data...
Loading historical data...
Loading historical data...
Loading historical data...
Loading historical data...
Loading historical data...

Documentation

Showing up to 5 results
|